This demonstration page uses our WeatherBlox Daily Observations layout. Learn more.

40.92945, -100.16068

Hourly Observations for October 17, 2019

Temp ( °F °C ) Dew Point ( °F °C ) Humidity (%) Winds ( mph kmh ) Pressure ( in mb ) Visibility ( mi km ) Precip ( " mm )
12:15 am 00:15 Clear 39 4 33 0.5 78 78 E 3 6 30.02 1017 10 16.0934 0 0
12:35 am 00:35 Clear 38 3.5 33 0.4 80 80 E 5 7 30.01 1016 10 16.0934 0 0
12:55 am 00:55 Clear 39 3.7 33 0.5 80 80 E 3 6 30 1016 10 16.0934 0 0
1:15 am 01:15 Clear 38 3.2 33 0.3 82 82 E 5 7 30 1016 10 16.0934 0 0
1:35 am 01:35 Clear 38 3.1 33 0.3 82 82 Calm 29.99 1015 10 16.0934 0 0
1:55 am 01:55 Clear 38 3.2 33 0.4 82 82 E 3 6 29.98 1015 10 16.0934 0 0
2:15 am 02:15 Clear 37 2.7 32 0.2 84 84 Calm 29.97 1015 10 16.0934 0 0
2:35 am 02:35 Clear 37 2.7 32 0.2 84 84 Calm 29.97 1015 10 16.0934 0 0
2:55 am 02:55 Clear 36 2.2 32 0 86 86 E 5 7 29.98 1015 10 16.0934 0 0
3:15 am 03:15 Clear 35 1.7 32 0 89 89 E 6 9 29.98 1015 10 16.0934 0 0
3:35 am 03:35 Clear 35 1.6 32 0 89 89 E 6 9 29.97 1015 10 16.0934 0 0
3:55 am 03:55 Clear 35 1.8 32 0 88 88 E 3 6 29.97 1015 10 16.0934 0 0
4:15 am 04:15 Clear 35 1.7 32 0 89 89 E 5 7 29.96 1015 10 16.0934 0 0
4:35 am 04:35 Clear 35 1.8 32 0 88 88 ESE 3 6 29.96 1015 10 16.0934 0 0
4:55 am 04:55 Clear 35 1.7 32 0 89 89 Calm 29.96 1015 10 16.0934 0 0
5:15 am 05:15 Clear 33 0.5 31 -0.5 93 93 Calm 29.96 1015 10 16.0934 0 0
5:35 am 05:35 Clear 32 0.2 31 -0.6 94 94 Calm 29.97 1015 10 16.0934 0 0
5:55 am 05:55 Clear 32 0 31 -0.7 95 95 Calm 29.98 1015 10 16.0934 0 0
6:15 am 06:15 Clear 32 -0.2 30 -1.2 93 93 Calm 29.97 1015 10 16.0934 0 0
6:35 am 06:35 Clear 32 -0.1 30 -1.1 93 93 Calm 29.97 1015 10 16.0934 0 0
6:55 am 06:55 Clear 31 -0.5 30 -1.3 94 94 Calm 29.97 1015 10 16.0934 0 0
7:15 am 07:15 Clear 31 -0.7 29 -1.4 95 95 Calm 29.96 1015 10 16.0934 0 0
7:35 am 07:35 Clear 30 -1 29 -1.6 96 96 Calm 29.97 1015 10 16.0934 0 0
7:55 am 07:55 Sunny with Mist and Fog 30 -0.9 29 -1.5 96 96 Calm 29.97 1015 5 8.0467 0 0
8:15 am 08:15 Sunny 31 -0.4 30 -1.3 94 94 Calm 29.95 1014 10 16.0934 0 0
8:35 am 08:35 Sunny 33 0.7 31 -0.4 92 92 SSE 3 6 29.94 1014 10 16.0934 0 0
8:55 am 08:55 Sunny 37 2.6 34 1 89 89 Calm 29.92 1013 10 16.0934 0 0
9:15 am 09:15 Sunny 39 4.1 35 1.8 85 85 Calm 29.91 1013 10 16.0934 0 0
9:35 am 09:35 Sunny 42 5.3 36 2.1 80 80 Calm 29.9 1012 10 16.0934 0 0
9:55 am 09:55 Sunny 44 6.6 37 2.7 76 76 Calm 29.88 1012 10 16.0934 0 0
10:15 am 10:15 Sunny 47 8.4 38 3.3 71 71 Calm 29.87 1011 10 16.0934 0 0
10:35 am 10:35 Sunny 50 10 38 3.2 63 63 SSE 5 7 29.85 1011 10 16.0934 0 0
10:55 am 10:55 Sunny 53 11.7 39 3.8 59 59 SE 3 6 29.83 1010 10 16.0934 0 0
11:15 am 11:15 Sunny 56 13.5 38 3.1 50 50 S 5 7 29.8 1009 10 16.0934 0 0
11:35 am 11:35 Sunny 59 15.1 38 3.5 46 46 SSE 7 11 29.79 1009 10 16.0934 0 0
11:55 am 11:55 Sunny 63 17 38 3.6 41 41 SSE 7 11 29.76 1008 10 16.0934 0 0
12:15 pm 12:15 Sunny 66 19.1 37 2.5 33 33 SSE 7 11 29.73 1007 10 16.0934 0 0
12:35 pm 12:35 Sunny 68 20.1 37 2.5 31 31 SSE 7 11 29.71 1006 10 16.0934 0 0
12:55 pm 12:55 Sunny 70 21.1 37 2.6 30 30 SSE 9 15 29.69 1006 10 16.0934 0 0
1:15 pm 13:15 Sunny 72 22 36 2.2 27 27 SSE 9 15 29.68 1005 10 16.0934 0 0
1:35 pm 13:35 Sunny 74 23.5 36 2.4 25 25 SSE 12 19 29.64 1004 10 16.0934 0 0
1:55 pm 13:55 Sunny 77 24.9 35 1.8 22 22 SSE 13 20 29.62 1003 10 16.0934 0 0
2:15 pm 14:15 Sunny 77 25 35 1.8 22 22 SSE 12 19 29.61 1003 10 16.0934 0 0
2:35 pm 14:35 Sunny 77 24.9 35 1.6 22 22 SSE 10 17 29.6 1002 10 16.0934 0 0
2:55 pm 14:55 Sunny 78 25.7 36 2 21 21 SSE 15 24 29.58 1002 10 16.0934 0 0
3:15 pm 15:15 Sunny 78 25.3 36 2.4 23 23 S 14 22 29.58 1002 10 16.0934 0 0
3:35 pm 15:35 Sunny 80 26.6 37 3 22 22 S 15 24 29.56 1001 10 16.0934 0 0
3:55 pm 15:55 Sunny 79 26.3 37 2.9 22 22 SSE 17 28 29.55 1001 10 16.0934 0 0
4:15 pm 16:15 Sunny 79 26 38 3.5 23 23 SSE 15 24 29.55 1001 10 16.0934 0 0
4:35 pm 16:35 Sunny 77 25.2 39 3.8 25 25 SSE 12 19 29.56 1001 10 16.0934 0 0
4:55 pm 16:55 Sunny 79 25.9 39 3.8 24 24 SSE 17 28 29.54 1000 10 16.0934 0 0
5:15 pm 17:15 Sunny 75 23.9 39 3.9 27 27 SSE 13 20 29.56 1001 10 16.0934 0 0
5:35 pm 17:35 Sunny 74 23.6 40 4.5 29 29 SE 13 20 29.55 1001 10 16.0934 0 0
5:55 pm 17:55 Sunny 74 23.5 40 4.6 29 29 SE 14 22 29.55 1001 10 16.0934 0 0
6:15 pm 18:15 Sunny 73 23 40 4.4 30 30 SSE 14 22 29.56 1001 10 16.0934 0 0
6:35 pm 18:35 Sunny 72 22 39 4 31 31 SSE 14 22 29.57 1001 10 16.0934 0 0
6:55 pm 18:55 Sunny 70 20.9 40 4.2 34 34 SE 14 22 29.58 1002 10 16.0934 0 0
7:15 pm 19:15 Clear 67 19.6 40 4.3 37 37 SE 12 19 29.59 1002 10 16.0934 0 0
7:35 pm 19:35 Clear 66 19 40 4.4 38 38 SE 12 19 29.58 1002 10 16.0934 0 0
7:55 pm 19:55 Clear 65 18.5 40 4.5 40 40 SE 13 20 29.59 1002 10 16.0934 0 0
8:15 pm 20:15 Clear 64 17.7 40 4.5 42 42 SE 10 17 29.58 1002 10 16.0934 0 0
8:35 pm 20:35 Clear 62 16.7 40 4.5 45 45 SE 9 15 29.59 1002 10 16.0934 0 0
8:55 pm 20:55 Clear 62 16.7 40 4.5 45 45 SE 12 19 29.58 1002 10 16.0934 0 0
9:15 pm 21:15 Clear 62 16.6 40 4.5 45 45 SSE 16 26 29.58 1002 10 16.0934 0 0
9:35 pm 21:35 Clear 63 17 40 4.4 43 43 SSE 18 30 29.57 1001 10 16.0934 0 0
9:55 pm 21:55 Clear 62 16.8 40 4.3 44 44 SSE 16 26 29.57 1001 10 16.0934 0 0
10:15 pm 22:15 Clear 62 16.7 39 4.1 43 43 SE 16 26 29.56 1001 10 16.0934 0 0
10:35 pm 22:35 Clear 62 16.4 39 4 44 44 SE 16 26 29.56 1001 10 16.0934 0 0
10:55 pm 22:55 Clear 62 16.4 39 3.8 43 43 SE 13 20 29.56 1001 10 16.0934 0 0
11:15 pm 23:15 Clear 61 16 39 3.7 44 44 SE 14 22 29.57 1001 10 16.0934 0 0
11:35 pm 23:35 Clear 61 15.9 38 3.6 44 44 SE 12 19 29.57 1001 10 16.0934 0 0
11:55 pm 23:55 Clear 60 15.6 38 3.6 45 45 SE 12 19 29.56 1001 10 16.0934 0 0

Powered by AerisWeather